sat.trackr.live / text

‹ back to catalog

UNKNOWN

NORAD 82693

UNKNOWN UNKNOWN UNKNOWN

§ Identity

Operator
Country
Launch date
Launch site
Launch vehicle
Mass (kg)
RCS (m²)

External: N2YO · Heavens-Above

§ Orbital elements

Epoch: 2026-09-17T06:22:39.861696Z

Period
105.05 min
Inclination
100.5286°
Eccentricity
0.0044897
Mean motion
13.70805386 rev/d
Perigee alt
963.6 km
Apogee alt
1,029.8 km
Semi-major
7,374.8 km
B*
1.9523e-3
RAAN
254.6632°
Arg perigee
48.6349°
Mean anomaly
311.8642°
Rev number
59,190

§ Raw data

UNKNOWN1 82693U          26260.26573914  .00001699  00000+0  19523-2 0  99972 82693 100.5286 254.6632 0044897  48.6349 311.8642 13.70805386591906

JSON: /api/v1/satellites/82693 · /tle

For live sub-satellite position, see the globe view (requires WebGL).

§ Visibility from observer

Set your observer location to see the next 7 days of passes ≥ 10°. The values pass through the URL so the page stays shareable.

No JS? Fill the form by hand. The geolocation button needs JavaScript.